TimeEDT,TemperatureF,Dew PointF,Humidity,Sea Level PressureIn,VisibilityMPH,Wind Direction,Wind SpeedMPH,Gust SpeedMPH,PrecipitationIn,Events,Conditions,WindDirDegrees,DateUTC
12:53 AM,59.0,57.0,93,29.87,10.0,Calm,Calm,-,N/A,,Clear,0,2013-09-04 04:53:00
1:53 AM,57.9,55.9,93,29.88,10.0,Calm,Calm,-,N/A,,Clear,0,2013-09-04 05:53:00
2:53 AM,57.0,55.0,93,29.88,10.0,Calm,Calm,-,N/A,,Clear,0,2013-09-04 06:53:00
3:53 AM,57.0,55.0,93,29.89,10.0,Calm,Calm,-,N/A,,Scattered Clouds,0,2013-09-04 07:53:00
4:53 AM,57.0,55.0,93,29.91,10.0,Calm,Calm,-,N/A,,Clear,0,2013-09-04 08:53:00
5:53 AM,55.9,54.0,93,29.93,9.0,Calm,Calm,-,N/A,,Clear,0,2013-09-04 09:53:00
6:53 AM,55.9,54.0,93,29.94,10.0,Calm,Calm,-,N/A,,Clear,0,2013-09-04 10:53:00
7:53 AM,64.0,57.0,78,29.96,10.0,NNW,5.8,-,N/A,,Clear,330,2013-09-04 11:53:00
8:53 AM,68.0,57.0,68,29.96,10.0,Variable,5.8,-,N/A,,Clear,0,2013-09-04 12:53:00
9:53 AM,70.0,55.9,61,29.97,10.0,WNW,10.4,-,N/A,,Clear,290,2013-09-04 13:53:00
10:53 AM,72.0,55.9,57,29.96,10.0,WNW,10.4,-,N/A,,Scattered Clouds,300,2013-09-04 14:53:00
11:53 AM,73.9,55.0,52,29.95,10.0,WNW,6.9,-,N/A,,Clear,300,2013-09-04 15:53:00
12:53 PM,77.0,53.1,43,29.94,10.0,Variable,4.6,-,N/A,,Clear,0,2013-09-04 16:53:00
1:53 PM,77.0,54.0,45,29.94,10.0,Variable,4.6,-,N/A,,Clear,0,2013-09-04 17:53:00
2:53 PM,78.1,55.0,45,29.93,10.0,West,4.6,-,N/A,,Partly Cloudy,260,2013-09-04 18:53:00
3:53 PM,79.0,54.0,42,29.92,10.0,SW,6.9,-,N/A,,Clear,220,2013-09-04 19:53:00
4:53 PM,79.0,54.0,42,29.92,10.0,Variable,3.5,-,N/A,,Clear,0,2013-09-04 20:53:00
5:53 PM,77.0,55.0,47,29.92,10.0,Calm,Calm,-,N/A,,Clear,0,2013-09-04 21:53:00
6:53 PM,70.0,61.0,73,29.91,10.0,Calm,Calm,-,N/A,,Clear,0,2013-09-04 22:53:00
7:53 PM,66.0,61.0,84,29.92,10.0,Calm,Calm,-,N/A,,Clear,0,2013-09-04 23:53:00
8:53 PM,64.0,60.1,87,29.94,10.0,Calm,Calm,-,N/A,,Clear,0,2013-09-05 00:53:00
9:53 PM,62.1,60.1,93,29.95,10.0,Calm,Calm,-,N/A,,Clear,0,2013-09-05 01:53:00
10:53 PM,61.0,59.0,93,29.95,10.0,Calm,Calm,-,N/A,,Clear,0,2013-09-05 02:53:00
11:53 PM,59.0,57.0,93,29.95,10.0,Calm,Calm,-,N/A,,Clear,0,2013-09-05 03:53:00